This is the latest recevied weather packets stored in our database for station/object WB3IGR. If no packets are shown the sender has not sent any weather packets the latest 10 day(s).
| Time | Temp. | Humidity | Pressure | Rain* | Wind** | Luminosity | Snow |
|---|---|---|---|---|---|---|---|
| 1778177654 | 16.67° C | 45% | 1011.4 hPa | 0 mm | - | 761 W/m² | - |
| 1778177351 | 17.22° C | 45% | 1011.3 hPa | 0 mm | - | 448 W/m² | - |
| 1778177048 | 17.22° C | 41% | 1011.3 hPa | 0 mm | - | 766 W/m² | - |
| 1778176743 | 17.22° C | 42% | 1011.3 hPa | 0 mm | - | 735 W/m² | - |
| 1778176440 | 17.22° C | 43% | 1011.4 hPa | 0 mm | - | 724 W/m² | - |
| 1778176138 | 16.67° C | 45% | 1011.5 hPa | 0 mm | - | 701 W/m² | - |
| 1778175835 | 16.67° C | 44% | 1011.4 hPa | 0 mm | - | 728 W/m² | - |
| 1778175533 | 17.22° C | 44% | 1011.6 hPa | 0 mm | - | 740 W/m² | - |
| 1778175230 | 17.22° C | 45% | 1011.6 hPa | 0 mm | - | 734 W/m² | - |
| 1778174926 | 17.22° C | 48% | 1011.8 hPa | 0 mm | - | 713 W/m² | - |
| 1778174623 | 16.67° C | 47% | 1011.8 hPa | 0 mm | - | 738 W/m² | - |
| 1778174319 | 16.11° C | 45% | 1011.9 hPa | 0 mm | - | 750 W/m² | - |
| 1778174015 | 16.11° C | 45% | 1012.2 hPa | 0 mm | - | 746 W/m² | - |
| 1778173713 | 17.22° C | 46% | 1012.1 hPa | 0 mm | - | 741 W/m² | - |
| 1778173409 | 17.78° C | 48% | 1011.9 hPa | 0 mm | - | 745 W/m² | - |
| 1778173105 | 16.11° C | 45% | 1012.3 hPa | 0 mm | - | 707 W/m² | - |
| 1778172801 | 16.11° C | 44% | 1012.4 hPa | 0 mm | - | 727 W/m² | - |
| 1778172497 | 16.11° C | 44% | 1012.3 hPa | 0 mm | - | 685 W/m² | - |
| 1778172194 | 16.67° C | 48% | 1012.5 hPa | 0 mm | - | 658 W/m² | - |
| 1778171891 | 15.56° C | 45% | 1012.5 hPa | 0 mm | - | 707 W/m² | - |
| 1778171589 | 15.56° C | 47% | 1012.6 hPa | 0 mm | - | 729 W/m² | - |
| 1778171285 | 16.11° C | 45% | 1012.7 hPa | 0 mm | - | 716 W/m² | - |
| 1778170981 | 15.56° C | 46% | 1012.7 hPa | 0 mm | - | 740 W/m² | - |
| 1778170678 | 15.56° C | 50% | 1012.6 hPa | 0 mm | - | 740 W/m² | - |
| 1778170375 | 16.11° C | 49% | 1012.8 hPa | 0 mm | - | 738 W/m² | - |
* Rain latest hour (hover to see other rain measurements)
** Current wind speed in m/s (hover to see current wind gust speed)